This is the latest recevied weather packets stored in our database for station/object W5ITZ. If no packets are shown the sender has not sent any weather packets the latest 10 day(s).
| Time | Temp. | Humidity | Pressure | Rain* | Wind** | Luminosity | Snow |
|---|---|---|---|---|---|---|---|
| 1777428574 | 26.11° C | 88% | 1011.9 hPa | 0 mm | - | 0 W/m² | - |
| 1777428270 | 26.11° C | 88% | 1011.6 hPa | 0 mm | - | 0 W/m² | - |
| 1777427965 | 26.11° C | 87% | 1011.8 hPa | 0 mm | - | 0 W/m² | - |
| 1777427662 | 26.11° C | 87% | 1011.8 hPa | 0 mm | - | 0 W/m² | - |
| 1777427359 | 26.11° C | 87% | 1011.4 hPa | 0 mm | - | 0 W/m² | - |
| 1777427055 | 26.11° C | 87% | 1011.4 hPa | 0 mm | - | 0 W/m² | - |
| 1777426752 | 26.11° C | 87% | 1011.5 hPa | 0 mm | - | 0 W/m² | - |
| 1777426450 | 26.11° C | 87% | 1011.5 hPa | 0 mm | - | 0 W/m² | - |
| 1777426145 | 26.11° C | 87% | 1010.7 hPa | 0 mm | - | 0 W/m² | - |
| 1777425840 | 26.11° C | 87% | 1011 hPa | 0 mm | - | 0 W/m² | - |
| 1777425536 | 26.11° C | 87% | 1011.1 hPa | 0 mm | - | 0 W/m² | - |
| 1777425230 | 26.11° C | 87% | 1010.8 hPa | 0 mm | - | 0 W/m² | - |
| 1777424928 | 26.11° C | 87% | 1010.6 hPa | 0 mm | - | 1 W/m² | - |
| 1777424624 | 26.11° C | 86% | 1010.6 hPa | 0 mm | - | 2 W/m² | - |
| 1777424319 | 26.11° C | 86% | 1010.4 hPa | 0 mm | - | 3 W/m² | - |
| 1777424015 | 26.11° C | 86% | 1010.7 hPa | 0 mm | - | 4 W/m² | - |
| 1777423712 | 26.11° C | 85% | 1010.8 hPa | 0 mm | - | 8 W/m² | - |
| 1777423408 | 26.67° C | 85% | 1010.7 hPa | 0 mm | - | 11 W/m² | - |
| 1777423107 | 26.67° C | 85% | 1010.5 hPa | 0 mm | - | 12 W/m² | - |
| 1777422803 | 26.67° C | 84% | 1010.8 hPa | 0 mm | - | 23 W/m² | - |
| 1777422499 | 26.67° C | 84% | 1010.7 hPa | 0 mm | - | 34 W/m² | - |
| 1777422194 | 26.67° C | 84% | 1010.9 hPa | 0 mm | - | 36 W/m² | - |
| 1777421894 | 26.67° C | 83% | 1011.1 hPa | 0 mm | - | 48 W/m² | - |
| 1777421589 | 26.67° C | 83% | 1010.9 hPa | 0 mm | - | 35 W/m² | - |
| 1777421285 | 26.67° C | 83% | 1010.8 hPa | 0 mm | - | 54 W/m² | - |
* Rain latest hour (hover to see other rain measurements)
** Current wind speed in m/s (hover to see current wind gust speed)